When you browse on this site, cookies collect data to enhance your experience and personalize the content and advertising you see.
Visit our Privacy Policy to learn more. By continuing to use the site, you agree to this use of cookies and data.
  • In Austria
  • List of Countries
  • For 7 days
  • Water Temperature
  • Satellite Maps
  • Weather Map
  • News
  • Weather Widgets
  • user-avatar
    Login

    Hourly Weather Rokitno

    Today, 16 February, Saturday

    Time Temperature Precipitation Wind Pressure Humidity
    00:00 +4°C° 0 mm 1 mps 766 mmHg 79%
    01:00 +4°C° 0 mm 1 mps 766 mmHg 78%
    02:00 +4°C° 0 mm 1 mps 766 mmHg 77%
    03:00 +3°C° 0 mm 2 mps 765 mmHg 77%
    04:00 +3°C° 0 mm 2 mps 765 mmHg 77%
    05:00 +3°C° 0 mm 2 mps 765 mmHg 77%
    06:00 +2°C° 0 mm 2 mps 765 mmHg 77%
    07:00 +2°C° 0 mm 2 mps 764 mmHg 76%
    08:00 +2°C° 0 mm 3 mps 764 mmHg 70%
    09:00 +4°C° 0 mm 3 mps 764 mmHg 64%
    10:00 +7°C° 0 mm 3 mps 764 mmHg 59%
    11:00 +8°C° 0 mm 3 mps 763 mmHg 54%
    12:00 +10°C° 0 mm 4 mps 763 mmHg 50%
    13:00 +13°C° 0 mm 3 mps 763 mmHg 45%
    14:00 +12°C° 0 mm 3 mps 763 mmHg 47%
    15:00 +12°C° 0 mm 3 mps 762 mmHg 49%
    16:00 +12°C° 0 mm 3 mps 762 mmHg 50%
    17:00 +10°C° 0 mm 3 mps 762 mmHg 56%
    18:00 +9°C° 0 mm 3 mps 762 mmHg 62%
    19:00 +8°C° 0 mm 3 mps 762 mmHg 68%
    20:00 +7°C° 0 mm 3 mps 762 mmHg 70%
    21:00 +7°C° 0 mm 3 mps 762 mmHg 72%
    22:00 +5°C° 0 mm 3 mps 762 mmHg 74%
    23:00 +5°C° 0 mm 3 mps 762 mmHg 77%

    Tomorrow, 17 February, Sunday

    Time Temperature Precipitation Wind Pressure Humidity
    00:00 +4°C° 0 mm 3 mps 762 mmHg 80%
    01:00 +4°C° 0 mm 3 mps 762 mmHg 82%
    02:00 +4°C° 0 mm 2 mps 762 mmHg 84%
    03:00 +4°C° 0 mm 2 mps 762 mmHg 86%
    04:00 +3°C° 0 mm 2 mps 762 mmHg 88%
    05:00 +3°C° 0 mm 2 mps 762 mmHg 89%
    06:00 +3°C° 0 mm 2 mps 762 mmHg 90%
    07:00 +2°C° 0 mm 2 mps 762 mmHg 92%
    08:00 +4°C° 0 mm 2 mps 762 mmHg 86%
    09:00 +5°C° 0 mm 2 mps 762 mmHg 80%
    10:00 +6°C° 0 mm 2 mps 762 mmHg 75%
    11:00 +8°C° 0 mm 2 mps 762 mmHg 70%
    12:00 +9°C° 0 mm 2 mps 762 mmHg 65%
    13:00 +10°C° 0 mm 2 mps 762 mmHg 60%
    14:00 +11°C° 0 mm 1 mps 762 mmHg 61%
    15:00 +11°C° 0 mm 1 mps 762 mmHg 62%
    16:00 +11°C° 0 mm 1 mps 761 mmHg 63%
    17:00 +10°C° 0 mm 1 mps 761 mmHg 67%
    18:00 +9°C° 0 mm 1 mps 761 mmHg 71%
    19:00 +8°C° 0 mm 1 mps 761 mmHg 75%
    20:00 +7°C° 0 mm 1 mps 761 mmHg 76%
    21:00 +7°C° 0 mm 1 mps 761 mmHg 77%
    22:00 +6°C° 0 mm 1 mps 761 mmHg 78%
    23:00 +5°C° 0 mm 2 mps 761 mmHg 79%

    Day after tomorrow, 18 February, Monday

    Time Temperature Precipitation Wind Pressure Humidity
    00:00 +4°C° 0 mm 2 mps 761 mmHg 79%
    01:00 +4°C° 0 mm 2 mps 761 mmHg 80%
    02:00 +4°C° 0 mm 2 mps 761 mmHg 80%
    03:00 +3°C° 0 mm 2 mps 760 mmHg 79%
    04:00 +3°C° 0 mm 2 mps 760 mmHg 79%
    05:00 +3°C° 0 mm 2 mps 760 mmHg 79%
    06:00 +3°C° 0 mm 2 mps 760 mmHg 80%
    07:00 +2°C° 0 mm 2 mps 760 mmHg 80%
    08:00 +4°C° 0 mm 2 mps 760 mmHg 74%
    09:00 +5°C° 0 mm 2 mps 760 mmHg 69%
    10:00 +6°C° 0 mm 2 mps 760 mmHg 63%
    11:00 +8°C° 0 mm 2 mps 759 mmHg 58%
    12:00 +9°C° 0 mm 2 mps 759 mmHg 53%
    13:00 +10°C° 0 mm 2 mps 759 mmHg 49%
    14:00 +10°C° 0 mm 2 mps 759 mmHg 50%
    15:00 +10°C° 0 mm 2 mps 758 mmHg 51%
    16:00 +10°C° 0 mm 2 mps 758 mmHg 52%
    17:00 +9°C° 0 mm 2 mps 758 mmHg 57%
    18:00 +8°C° 0 mm 2 mps 758 mmHg 62%
    19:00 +7°C° 0 mm 2 mps 758 mmHg 67%
    20:00 +6°C° 0 mm 2 mps 758 mmHg 69%
    21:00 +6°C° 0 mm 2 mps 757 mmHg 71%
    22:00 +5°C° 0 mm 2 mps 757 mmHg 73%
    23:00 +4°C° 0 mm 3 mps 757 mmHg 74%

    19 February, Tuesday

    Time Temperature Precipitation Wind Pressure Humidity
    00:00 +4°C° 0 mm 3 mps 757 mmHg 74%
    01:00 +3°C° 0 mm 3 mps 757 mmHg 75%
    02:00 +3°C° 0 mm 3 mps 757 mmHg 78%
    03:00 +3°C° 0 mm 3 mps 756 mmHg 80%
    04:00 +3°C° 0 mm 3 mps 756 mmHg 82%
    05:00 +2°C° 0 mm 3 mps 756 mmHg 81%
    06:00 +2°C° 0 mm 3 mps 755 mmHg 81%
    07:00 +2°C° 0 mm 3 mps 755 mmHg 80%
    08:00 +3°C° 0 mm 4 mps 755 mmHg 74%
    09:00 +5°C° 0 mm 4 mps 755 mmHg 67%
    10:00 +6°C° 0 mm 5 mps 755 mmHg 61%
    11:00 +7°C° 0 mm 5 mps 755 mmHg 58%
    12:00 +8°C° 0 mm 5 mps 755 mmHg 56%
    13:00 +10°C° 0 mm 6 mps 754 mmHg 54%
    14:00 +9°C° 0.2 mm 6 mps 754 mmHg 62%
    15:00 +8°C° 0.2 mm 6 mps 754 mmHg 70%
    16:00 +7°C° 0.2 mm 6 mps 754 mmHg 78%
    17:00 +6°C° 0.1 mm 5 mps 755 mmHg 80%
    18:00 +6°C° 0.1 mm 4 mps 755 mmHg 82%
    19:00 +5°C° 0.1 mm 4 mps 755 mmHg 84%
    20:00 +5°C° 0 mm 4 mps 756 mmHg 84%
    21:00 +4°C° 0 mm 4 mps 756 mmHg 84%
    22:00 +4°C° 0 mm 4 mps 757 mmHg 84%
    23:00 +4°C° 0 mm 4 mps 757 mmHg 85%

    20 February, Wednesday

    Time Temperature Precipitation Wind Pressure Humidity
    00:00 +4°C° 0 mm 4 mps 757 mmHg 86%
    01:00 +3°C° 0 mm 4 mps 757 mmHg 87%
    02:00 +3°C° 0 mm 4 mps 757 mmHg 88%
    03:00 +3°C° 0 mm 4 mps 757 mmHg 89%
    04:00 +1°C° 0 mm 4 mps 757 mmHg 91%
    05:00 +1°C° 0 mm 4 mps 758 mmHg 91%
    06:00 +1°C° 0 mm 4 mps 758 mmHg 91%
    07:00 +1°C° 0 mm 4 mps 758 mmHg 91%
    08:00 +1°C° 0 mm 5 mps 759 mmHg 87%
    09:00 +2°C° 0 mm 5 mps 759 mmHg 83%
    10:00 +3°C° 0 mm 5 mps 760 mmHg 79%
    11:00 +5°C° 0 mm 5 mps 760 mmHg 74%
    12:00 +6°C° 0 mm 5 mps 760 mmHg 70%
    13:00 +7°C° 0 mm 5 mps 760 mmHg 65%
    14:00 +7°C° 0 mm 5 mps 760 mmHg 67%
    15:00 +7°C° 0 mm 4 mps 760 mmHg 68%
    16:00 +6°C° 0 mm 4 mps 760 mmHg 70%
    17:00 +7°C° 0 mm 3 mps 760 mmHg 73%
    18:00 +7°C° 0 mm 3 mps 761 mmHg 77%
    19:00 +7°C° 0 mm 3 mps 761 mmHg 80%
    20:00 +5°C° 0 mm 3 mps 761 mmHg 82%
    21:00 +5°C° 0 mm 3 mps 761 mmHg 84%
    22:00 +4°C° 0 mm 3 mps 761 mmHg 86%
    23:00 +4°C° 0 mm 3 mps 761 mmHg 87%

    21 February, Thursday

    Time Temperature Precipitation Wind Pressure Humidity
    00:00 +4°C° 0 mm 3 mps 761 mmHg 88%
    01:00 +4°C° 0 mm 3 mps 761 mmHg 89%
    02:00 +4°C° 0.2 mm 3 mps 761 mmHg 89%
    03:00 +4°C° 0.2 mm 3 mps 761 mmHg 90%
    04:00 +4°C° 0.2 mm 3 mps 761 mmHg 90%
    05:00 +4°C° 0.2 mm 3 mps 761 mmHg 89%
    06:00 +4°C° 0.2 mm 3 mps 761 mmHg 89%
    07:00 +4°C° 0.2 mm 3 mps 761 mmHg 89%
    08:00 +5°C° 0 mm 3 mps 761 mmHg 85%
    09:00 +5°C° 0 mm 4 mps 761 mmHg 81%
    10:00 +6°C° 0 mm 4 mps 761 mmHg 77%
    11:00 +7°C° 0 mm 4 mps 760 mmHg 75%
    12:00 +7°C° 0 mm 4 mps 760 mmHg 74%
    13:00 +8°C° 0 mm 5 mps 760 mmHg 72%
    14:00 +7°C° 0.4 mm 5 mps 760 mmHg 77%
    15:00 +7°C° 0.4 mm 4 mps 760 mmHg 81%
    16:00 +6°C° 0.4 mm 4 mps 760 mmHg 86%
    17:00 +6°C° 0.3 mm 4 mps 760 mmHg 87%
    18:00 +6°C° 0.3 mm 4 mps 760 mmHg 88%
    19:00 +7°C° 0.3 mm 3 mps 760 mmHg 88%
    20:00 +6°C° 0.1 mm 4 mps 760 mmHg 89%
    21:00 +6°C° 0.1 mm 4 mps 760 mmHg 90%
    22:00 +6°C° 0.1 mm 4 mps 760 mmHg 90%
    23:00 +6°C° 0.9 mm 4 mps 760 mmHg 91%
    Show more